Flag for Germany Weather past 2 weeks in Cloppenburg, Lower Saxony, Germany

Now
55 °F

Cool.


Feels Like: 55 °F
Forecast: 38 / 65 °F
Wind: 5 mph from Northwest

Location: Meppen-Mil

Current Time: May 23, 2015 at 9:51:42 AM

Latest Report: May 23, 2015 at 9:20 AM


Visibility: 2 mi

Pressure: 30.15 "Hg

Humidity: 82%

Dew point: 50 °F

Location of CloppenburgLocation

Historic Weather in Cloppenburg — Graph

°F

Cloppenburg temperature yesterday

Maximum temperature yesterday: 68 °F (at 2:20 PM)
Minimum temperature yesterday: 43 °F (at 2:20 AM)
Average temperature yesterday: 57 °F

Past Weeks' High & Low Weather Summary

 TemperatureHumidityPressure
High79 °F (May 11, 4:20 PM)100% (May 16, 5:20 AM)30.33 "Hg (May 16, 5:20 AM)
Low34 °F (May 16, 4:20 AM)28% (May 11, 4:20 PM)29.56 "Hg (May 19, 5:20 AM)
Average53 °F68%30.04 "Hg
* Reported May 8 8:20 AM — May 23 8:20 AM, Cloppenburg, Weather by CustomWeather, © 2015

Note: Actual official high and low records may vary slightly from our data, if they occured in-between our weather recording intervals... More about our weather records

Advertising

Cloppenburg weather history for previous 24 hours

 ConditionsComfort  
Time TempWeatherWind HumidityBarometerVisibility
8:20 AM
Sat, May 23
55 °FCool.5 mph82%30.15 "Hg4 mi
7:20 AM55 °FCool.3 mph82%30.15 "Hg4 mi
6:20 AM52 °FCool.2 mph88%30.12 "Hg4 mi
5:20 AM52 °FCool.2 mph88%30.15 "Hg4 mi
4:20 AM54 °FCool.3 mph82%30.15 "Hg4 mi
3:20 AM55 °FCool.3 mph77%30.15 "Hg5 mi
2:20 AM55 °FCool.3 mph77%30.18 "Hg5 mi
1:20 AM55 °FCool.1 mph82%30.18 "Hg5 mi
12:20 AM57 °FCool.1 mph77%30.18 "Hg5 mi
11:20 PM
Fri, May 22
59 °FCool.2 mph68%30.18 "Hg5 mi
10:20 PM61 °FCool.3 mph63%30.18 "Hg5 mi
9:20 PM61 °FCool.3 mph63%30.18 "Hg6 mi
8:20 PM63 °FMild.3 mph56%30.18 "Hg6 mi
7:20 PM64 °FMild.5 mph49%30.18 "Hg6 mi
6:20 PM64 °FMild.5 mph49%30.18 "Hg6 mi
5:20 PM66 °FMild.6 mph46%30.18 "Hg6 mi
4:20 PM66 °FMild.7 mph43%30.21 "Hg6 mi
3:20 PM68 °FMild.9 mph40%30.21 "Hg6 mi
2:20 PM68 °FMild.10 mph38%30.21 "Hg6 mi
1:20 PM66 °FScattered clouds.10 mph46%30.24 "HgN/A
12:20 PM66 °FScattered clouds.9 mph46%30.24 "HgN/A
11:20 AM63 °FScattered clouds.8 mph52%30.27 "HgN/A
10:20 AM61 °FScattered clouds.12 mph55%30.27 "HgN/A
9:20 AM59 °FScattered clouds.9 mph55%30.27 "HgN/A
Weather by CustomWeather, © 2015

See weather overviewHow to use our weather pages